Visibility
15.0 15.0 15.0 15.0 15.0 15.0 15.0 15.0 15.0 15.0 15.0 15.0 15.0 15.0 15.0 15.0 15.0 15.0 15.0 15.0 15.0 15.0 15.0 15.0 15.0 15.0 15.0 15.0 15.0 15.0 2.7 3.7 15.0 15.0 15.0 15.0 15.0 15.0 15.0 15.0 15.0 15.0 15.0 15.0
15.0 15.0 15.0 15.0 15.0 15.0 15.0 15.0 15.0 15.0 15.0 15.0 15.0 15.0 15.0 15.0 15.0 15.0 15.0 15.0 15.0 15.0 15.0 15.0 15.0 15.0 15.0 15.0 6.4 13.5 8.3 10.2 15.0 15.0 15.0 15.0 15.0 15.0 15.0 15.0 15.0 15.0 15.0 15.0
13.9 15.0 15.0 15.0 15.0 15.0 15.0 15.0 15.0 15.0 15.0 15.0 15.0 15.0 15.0 15.0 15.0 15.0 15.0 15.0 15.0 15.0 15.0 15.0 15.0 15.0 14.8 15.0 13.3 9.5 4.3 8.0 13.7 13.0 15.0 15.0 15.0 15.0 15.0 15.0 15.0 15.0 15.0 15.0
15.0 15.0 15.0 15.0 15.0 15.0 15.0 15.0 15.0 15.0 15.0 3.1 15.0 11.9 15.0 15.0 15.0 15.0 15.0 15.0 15.0 15.0 15.0 15.0 15.0 15.0 15.0 15.0 15.0 13.1 14.8 13.2 9.5 15.0 15.0 15.0 15.0 15.0 15.0 15.0 15.0 15.0 15.0 15.0
15.0 15.0 15.0 15.0 15.0 15.0 15.0 15.0 15.0 14.5 15.0 13.9 15.0 0.1 15.0 15.0 15.0 15.0 15.0 15.0 15.0 15.0 15.0 15.0 15.0 15.0 15.0 15.0 15.0 14.8 15.0 12.6 15.0 11.5 15.0 15.0 15.0 15.0 15.0 15.0 15.0 15.0 15.0 15.0
15.0 15.0 15.0 15.0 15.0 15.0 15.0 15.0 15.0 15.0 15.0 1.1 15.0 15.0 15.0 15.0 15.0 15.0 15.0 15.0 15.0 15.0 15.0 15.0 15.0 15.0 15.0 15.0 15.0 15.0 14.2 14.7 15.0 14.5 15.0 15.0 15.0 15.0 15.0 15.0 15.0 15.0 15.0 15.0
15.0 15.0 15.0 15.0 15.0 15.0 15.0 6.7 0.1 0.0 0.1 1.4 15.0 9.5 15.0 15.0 15.0 15.0 15.0 15.0 15.0 15.0 15.0 15.0 15.0 15.0 15.0 15.0 15.0 15.0 15.0 15.0 15.0 15.0 15.0 15.0 15.0 15.0 15.0 15.0 15.0 15.0 15.0 15.0
1.7 9.8 15.0 15.0 15.0 15.0 15.0 14.7 5.0 0.5 15.0 15.0 15.0 12.2 15.0 15.0 15.0 15.0 15.0 15.0 15.0 15.0 15.0 15.0 15.0 15.0 15.0 15.0 15.0 15.0 15.0 15.0 15.0 15.0 15.0 15.0 15.0 15.0 15.0 15.0 15.0 15.0 15.0 15.0
0.0 0.6 15.0 15.0 15.0 15.0 13.0 0.2 11.9 5.7 12.7 0.7 14.2 15.0 15.0 15.0 15.0 15.0 15.0 15.0 15.0 15.0 15.0 15.0 15.0 15.0 15.0 15.0 15.0 15.0 15.0 15.0 15.0 15.0 15.0 1.4 2.2 15.0 15.0 15.0 15.0 15.0 15.0 15.0
0.0 0.0 13.8 15.0 15.0 15.0 11.2 15.0 0.1 0.0 0.1 0.1 0.8 15.0 15.0 15.0 15.0 15.0 15.0 15.0 15.0 15.0 15.0 15.0 15.0 15.0 15.0 15.0 15.0 15.0 15.0 15.0 15.0 15.0 15.0 15.0 15.0 15.0 15.0 15.0 15.0 15.0 15.0 15.0
0.2 0.0 1.1 15.0 15.0 15.0 15.0 5.2 0.1 0.0 0.1 0.2 0.2 12.4 15.0 15.0 15.0 15.0 15.0 15.0 15.0 15.0 15.0 15.0 15.0 15.0 15.0 15.0 15.0 15.0 15.0 15.0 15.0 15.0 15.0 15.0 15.0 15.0 15.0 15.0 15.0 15.0 15.0 15.0
14.2 0.2 0.2 15.0 15.0 15.0 0.5 0.0 0.0 0.0 0.4 4.2 15.0 14.7 15.0 15.0 15.0 15.0 15.0 15.0 15.0 15.0 15.0 15.0 15.0 15.0 15.0 15.0 15.0 15.0 15.0 15.0 15.0 15.0 12.1 2.9 13.6 15.0 15.0 15.0 15.0 15.0 15.0 15.0
0.0 0.0 0.2 12.1 12.5 7.5 0.0 0.0 0.0 0.1 0.1 0.1 0.0 2.0 15.0 15.0 15.0 15.0 15.0 15.0 15.0 15.0 15.0 15.0 15.0 15.0 15.0 15.0 15.0 15.0 11.9 0.2 0.2 4.9 3.9 3.0 15.0 15.0 15.0 15.0 15.0 15.0 15.0 15.0
1.9 4.2 7.5 0.2 7.3 8.2 15.0 15.0 7.5 0.5 0.1 0.1 0.8 2.4 15.0 15.0 15.0 15.0 15.0 15.0 15.0 15.0 15.0 15.0 15.0 15.0 15.0 15.0 15.0 15.0 0.1 0.1 0.7 7.9 7.6 2.1 4.7 15.0 15.0 15.0 15.0 15.0 15.0 15.0
12.6 5.6 15.0 15.0 15.0 15.0 15.0 15.0 15.0 15.0 15.0 5.5 12.5 10.1 15.0 15.0 15.0 15.0 15.0 15.0 15.0 15.0 15.0 15.0 15.0 15.0 15.0 15.0 15.0 12.6 3.4 5.0 12.3 11.1 12.5 13.3 15.0 15.0 15.0 15.0 15.0 15.0 15.0 15.0
15.0 8.1 14.9 5.8 15.0 15.0 15.0 15.0 15.0 15.0 15.0 15.0 15.0 15.0 15.0 15.0 15.0 15.0 15.0 15.0 15.0 15.0 15.0 15.0 15.0 15.0 15.0 15.0 15.0 15.0 15.0 15.0 15.0 15.0 15.0 15.0 15.0 15.0 15.0 15.0 15.0 15.0 15.0 15.0
0.1 1.0 0.5 15.0 15.0 15.0 15.0 15.0 15.0 15.0 15.0 15.0 15.0 12.8 15.0 15.0 15.0 15.0 15.0 15.0 15.0 15.0 10.8 9.3 11.6 15.0 15.0 15.0 15.0 15.0 15.0 15.0 15.0 15.0 15.0 15.0 15.0 15.0 15.0 15.0 15.0 15.0 15.0 15.0
11.2 1.2 3.6 2.4 12.9 0.3 15.0 15.0 15.0 15.0 15.0 14.2 14.1 11.4 4.9 12.0 11.4 15.0 15.0 15.0 15.0 15.0 15.0 13.3 4.8 8.7 15.0 15.0 15.0 15.0 15.0 15.0 15.0 15.0 15.0 15.0 15.0 15.0 15.0 15.0 15.0 15.0 15.0 15.0
15.0 15.0 12.4 12.4 0.9 15.0 15.0 13.3 13.1 5.0 15.0 1.2 1.1 5.3 3.0 2.4 0.1 0.2 15.0 15.0 10.1 7.2 15.0 6.1 15.0 15.0 10.4 6.2 15.0 15.0 15.0 15.0 15.0 15.0 15.0 15.0 15.0 15.0 15.0 14.2 10.0 14.8 15.0 15.0
15.0 15.0 10.3 0.3 0.6 0.9 15.0 2.3 10.2 1.7 0.2 14.9 4.4 4.0 2.8 0.3 0.4 1.5 0.2 0.3 0.1 0.1 0.1 0.1 0.3 0.1 1.5 0.9 6.7 15.0 15.0 15.0 15.0 15.0 15.0 15.0 14.2 2.8 5.1 15.0 15.0 15.0 15.0 15.0
14.1 2.6 0.7 4.6 0.2 8.9 15.0 9.7 1.0 2.2 11.4 14.4 1.4 2.5 4.3 1.3 0.7 0.2 0.2 0.1 0.1 0.1 0.1 0.1 0.2 0.3 0.7 0.8 1.6 11.0 15.0 15.0 15.0 11.8 4.5 8.4 15.0 15.0 15.0 15.0 15.0 15.0 15.0 15.0
0.5 0.1 9.9 1.7 1.0 0.1 1.3 0.3 0.3 5.9 14.3 2.9 3.4 1.0 0.6 1.0 0.7 0.2 0.1 0.1 0.1 0.1 0.1 0.1 0.1 0.3 2.7 2.3 1.6 2.2 2.5 1.1 3.4 15.0 15.0 10.7 14.9 15.0 15.0 15.0 15.0 15.0 15.0 15.0
5.4 8.9 0.1 0.2 0.1 6.4 13.5 13.4 13.5 15.0 3.8 10.5 1.5 1.0 1.0 0.4 0.1 0.3 0.2 0.1 0.1 0.1 0.1 0.1 0.2 0.6 1.0 1.1 1.3 0.3 0.1 0.4 6.2 5.0 8.9 14.9 15.0 15.0 15.0 15.0 15.0 15.0 15.0 15.0
15.0 13.9 6.9 14.9 13.7 12.8 15.0 15.0 14.5 8.5 4.4 12.9 1.8 0.8 0.4 1.4 0.2 0.1 0.1 0.1 0.1 0.1 0.1 0.1 0.1 0.1 0.1 0.1 0.1 0.1 0.1 0.4 7.8 14.7 14.1 15.0 15.0 15.0 15.0 15.0 15.0 15.0 15.0 15.0
10.3 8.7 11.2 8.1 15.0 14.1 15.0 7.2 15.0 8.2 1.7 1.1 0.6 1.7 0.5 0.7 0.2 0.1 0.1 0.1 0.1 0.1 0.1 0.1 0.1 0.1 0.1 0.1 0.1 0.1 2.8 4.3 11.8 15.0 15.0 15.0 15.0 15.0 15.0 15.0 15.0 15.0 15.0 15.0
9.8 13.0 10.8 13.5 15.0 15.0 15.0 14.7 2.4 1.9 2.0 1.0 1.5 0.3 0.2 0.2 0.2 0.2 0.1 0.1 0.1 0.1 0.1 0.1 0.1 0.1 0.1 0.1 1.4 2.6 6.6 15.0 15.0 15.0 15.0 15.0 15.0 15.0 15.0 15.0 15.0 15.0 15.0 14.1